Regional Weather Roundup
Issued by NWS Sioux Falls, SD

Home | Current Version | Previous Version | Graphics & Text | Print | Product List | Glossary Off
Versions: 1 2 3 4 5 6 7 8 9 10 11 12 13 14 15 16 17 18 19 20 21 22 23 24 25 26 27 28 29 30 31 32 33 34 35 36 37 38 39 40 41 42 43 44 45 46 47 48 49 50

000
ASUS43 KFSD 161002
RWRFSD

WEATHER ROUNDUP FOR SE SOUTH DAKOTA/SW MINNESOTA/NW IOWA
NATIONAL WEATHER SERVICE SIOUX FALLS SD
400 AM CST TUE JAN 16 2018

NOTE: "FAIR" INDICATES FEW OR NO CLOUDS BELOW 12,000 FEET WITH NO
SIGNIFICANT WEATHER AND OR OBSTRUCTIONS TO VISIBILITY.


SDZ038>040-050-052>070-161100-
SOUTHEAST SOUTH DAKOTA

CITY           SKY/WX    TMP DP  RH WIND       PRES   REMARKS
BROOKINGS      CLOUDY    -8 -12  83 N17       30.70R WCI -31
CHAMBERLAIN    PTCLDY    -6 -12  73 W9        30.79S WCI -22
HURON          MOCLDY    -9 -15  75 NW13      30.81S WCI -29
MADISON        CLOUDY    -8  -9  92 N15G21    30.69R WCI -29
MITCHELL       PTCLDY    -7 -14  71 NW15      30.81R WCI -28
SIOUX FALLS    CLOUDY    -4  -8  83 N12       30.71R WCI -22
WINNER         FAIR      -6 -13  71 NW12      30.77S WCI -25
YANKTON        CLOUDY    -4  -9  79 NW15      30.77R WCI -25
$$

MNZ071-072-080-081-089-090-097-098-161100-
SOUTHWEST MINNESOTA

CITY           SKY/WX    TMP DP  RH WIND       PRES   REMARKS
FAIRMONT       LGT SNOW  -7 -12  79 NW21      30.64  WCI -32
JACKSON        FLURRIES  -8 -13  77 NW18G24   30.63S WCI -31
LUVERNE        CLOUDY    -4  -9  77 N13       30.70R WCI -23
MARSHALL       FLURRIES  -9 -14  78 N20       30.73R WCI -34
MONTEVIDEO     CLOUDY    -9 -15  77 N15       30.76R WCI -31
PIPESTONE      CLOUDY    -8 -11  84 N9        30.66R WCI -25
REDWOOD FALLS  FLURRIES  -8 -13  78 NW15G22   30.72R WCI -30
WINDOM         LGT SNOW  -8 -20  54 NW20      30.65R WCI -32
WORTHINGTON    FLURRIES -10 -14  82 N15       30.66R WCI -32
$$

IAZ001>003-012>014-020>022-031-032-NEZ013-014-SDZ071-161100-
NORTHWEST IOWA

CITY           SKY/WX    TMP DP  RH WIND       PRES   REMARKS
CHEROKEE       MOCLDY    -6 -12  77 NW12G17   30.69R WCI -25
DENISON        CLOUDY    -4 -11  71 NW16G22   30.69R WCI -25
ESTHERVILLE    LGT SNOW  -8 -12  83 NW20      30.64R FOG     WCI -32
LE MARS        CLOUDY    -4  -9  77 NW7       30.72S WCI -18
ORANGE CITY    MOCLDY    -2  -8  78 N12       30.67S WCI -20
SHELDON        CLOUDY    -8 -13  77 NW14      30.67R WCI -28
SIOUX CITY     MOCLDY    -3  -8  79 NW17      30.74R WCI -24
SPENCER        FLURRIES  -6 -13  71 NW20      30.66R WCI -30
STORM LAKE     CLOUDY    -8 -13  77 NW16      30.63R WCI -30
$$

ABBREVIATIONS USED IN REMARKS
   TC - TEMPERATURE IN CELSIUS
  WCI - WIND CHILL INDEX
   HX - HEAT INDEX
  VSB - VISIBILITY




USA.gov is the U.S. government's official web portal to all federal, state and local government web resources and services.